Content
SEND FEEDBACK

Daily
Averages
Monthly
Summary
United States of America

HACKBERRY, ARIZONA


Home > North America > United States > Arizona
Elevation: 3330 feet     Latitude: 35 11N     Longitude: 114 03W

WEATHER
 
SELECT A DAY
Number of Records: 181,416;   Date Range: 1/1/95 - 7/7/14
 
SHARE

PRINT THIS DATA

[ ← Previous Day ]
WEATHER ALMANAC - JANUARY 31, 2013
[ Next Day → ]
[ °C ]   °F
Weather ElementAverageHighLow
Temperature44.5 °F60.1 °F (2:51 pm)30 °F (5:51 am)
Dewpoint28.9 °F30.9 °F (10:51 am)26.1 °F (5:51 am)
Humidity58 %85 % (5:51 am)31 % (2:51 pm)
Barometer30.18 in30.22 in (7:51 am)30.11 in (4:51 pm)
Wind Speed5.6 mph10.4 mph (4:51 pm)
Weather ElementAverage
Visibility10 mi
Wind DirectionENE (64.3 °)

Weather ElementTotal
Precipitation---
Heating Degree Days20 (Base 65)
Averaged from 23 records on January 31, 2013
WEATHER CONDITIONS BREAKOUT
WIND DIRECTION BREAKOUT
WEATHER BY HOUR - JANUARY 31, 2013
[ °C ]   °F
Local TimeTemperatureDewpointHumidityBarometerVisibilityWind DirectionWind SpeedGust SpeedPrecipitationEventsConditions
1:51 AM33.1 °F28.0 °F82 %30.20 in10.0 miCalmClear
2:51 AM33.1 °F28.0 °F82 %30.21 in10.0 miCalmClear
3:51 AM32.0 °F27.0 °F82 %30.20 in10.0 miEast (80°)3.5 mphClear
4:51 AM34.0 °F28.0 °F79 %30.19 in10.0 miCalmClear
5:51 AM30.0 °F26.1 °F85 %30.19 in10.0 miCalmClear
6:51 AM34.0 °F27.0 °F75 %30.20 in10.0 miEast (80°)8.1 mphClear
7:51 AM34.0 °F27.0 °F75 %30.22 in10.0 miENE (70°)6.9 mphClear
8:51 AM42.1 °F30.0 °F62 %30.22 in10.0 miENE (70°)6.9 mphClear
9:51 AM46.9 °F30.0 °F52 %30.22 in10.0 miNE (40°)6.9 mphClear
10:51 AM48.9 °F30.9 °F50 %30.22 in10.0 miNE (40°)4.6 mphClear
11:51 AM52.0 °F30.0 °F43 %30.21 in10.0 miNE (40°)4.6 mphClear
12:51 PM55.9 °F28.0 °F34 %30.20 in10.0 miNorth (10°)8.1 mphClear
1:51 PM57.9 °F28.0 °F32 %30.17 in10.0 miVariable5.8 mphClear
2:51 PM60.1 °F28.9 °F31 %30.15 in10.0 miNorth (10°)8.1 mphClear
3:51 PM60.1 °F30.0 °F32 %30.13 in10.0 miNorth (10°)9.2 mphClear
4:51 PM57.9 °F28.9 °F33 %30.11 in10.0 miNorth (360°)10.4 mphClear
5:51 PM54.0 °F30.0 °F40 %30.12 in10.0 miENE (70°)4.6 mphClear
6:51 PM48.9 °F30.0 °F48 %30.12 in10.0 miNE (50°)8.1 mphClear
7:51 PM46.0 °F30.9 °F56 %30.16 in10.0 miSE (130°)8.1 mphClear
8:51 PM45.0 °F30.0 °F56 %30.15 in10.0 miESE (120°)8.1 mphClear
9:51 PM39.9 °F30.0 °F68 %30.15 in10.0 miESE (110°)6.9 mphClear
10:51 PM39.0 °F28.9 °F67 %30.14 in10.0 miEast (100°)4.6 mphClear
11:51 PM37.9 °F28.9 °F70 %30.15 inEast (90°)4.6 mph
Hourly data recorded from KIGM, located miles away from Hackberry, Arizona







STORIES FROM OUR PARTNERS